Weather History for Dallas/Ft Worth, TX

Change the Weather History Date:

Tuesday, July 2, 2013

  Actual Average Record
Temperature  
Mean Temperature 78 °F 84 °F  
Max Temperature 89 °F 94 °F 110 °F (1980)
Min Temperature 66 °F 74 °F 65 °F (1943)
Degree Days  
Heating Degree Days 0 0  
Month to date heating degree days 0 0  
Since 1 June heating degree days 0 0  
Since 1 July heating degree days 0 0  
Cooling Degree Days 13 19  
Month to date cooling degree days 26 38  
Year to date cooling degree days 953 951  
Since 1 June cooling degree days 564 529  
Growing Degree Days 28 (Base 50)    
Moisture  
Dew Point 51 °F    
Average Humidity 45    
Maximum Humidity 68    
Minimum Humidity 22    
Precipitation  
Precipitation 0.00 in 0.10 in 1.87 in (1951)
Month to date precipitation 0.00 0.19  
Year to date precipitation 15.30 20.23  
Sea Level Pressure  
Sea Level Pressure 30.02 in    
Wind  
Wind Speed 9 mph (North)    
Max Wind Speed 22 mph    
Max Gust Speed 26 mph    
Visibility 10 miles    
Events      
T = Trace of Precipitation, MM = Missing Value Source: NWS Daily Summary

Daily Weather History Graph

Daily Weather History Graph

Search for Another Location

Airport:

Trip Planner

Search our weather history database for the weather conditions in past years. The results will help you decide how hot, cold, wet, or windy it might be!

Date:

Astronomy

Jul. 02, 2013 Rise Set
Actual Time 6:23 AM CDT 8:40 PM CDT
Civil Twilight 5:55 AM CDT 9:08 PM CDT
Nautical Twilight 5:20 AM CDT 9:43 PM CDT
Astronomical Twilight 4:42 AM CDT 10:21 PM CDT
Moon 2:18 AM CDT (7/2) 4:02 PM CDT (7/2)
Length of Visible Light 15h 13m
Length of Day
14h 16m
Waning Crescent, 26% of the Moon is Illuminated
Jul 2
Waning Crescent
Jul 8
New
Jul 15
First Quarter
Jul 22
Full
Jul 29
Last Quarter

Hourly Weather History & Observations

Time (CDT) Temp. Dew Point Humidity Pressure Visibility Wind Dir Wind Speed Gust Speed Precip Events Conditions
12:53 AM 73.0 °F 57.0 °F 57% 30.01 in 10.0 mi NNW 8.1 mph - N/A   Clear
1:53 AM 71.1 °F 55.9 °F 59% 30.00 in 10.0 mi North 8.1 mph - N/A   Clear
2:53 AM 70.0 °F 55.0 °F 59% 30.00 in 10.0 mi NNW 8.1 mph - N/A   Clear
3:53 AM 69.1 °F 54.0 °F 58% 30.00 in 10.0 mi NNW 8.1 mph - N/A   Clear
4:53 AM 68.0 °F 54.0 °F 61% 30.01 in 10.0 mi NNW 9.2 mph - N/A   Scattered Clouds
5:53 AM 66.9 °F 55.0 °F 66% 30.02 in 10.0 mi NNW 9.2 mph - N/A   Mostly Cloudy
6:53 AM 66.9 °F 55.9 °F 68% 30.04 in 10.0 mi NNW 9.2 mph - N/A   Mostly Cloudy
7:53 AM 71.1 °F 55.9 °F 59% 30.05 in 10.0 mi North 11.5 mph - N/A   Scattered Clouds
9:53 AM 78.1 °F 55.0 °F 45% 30.07 in 10.0 mi North 11.5 mph - N/A   Partly Cloudy
10:53 AM 81.0 °F 51.1 °F 35% 30.07 in 10.0 mi North 15.0 mph - N/A   Partly Cloudy
11:53 AM 82.0 °F 52.0 °F 35% 30.07 in 10.0 mi NE 9.2 mph - N/A   Partly Cloudy
12:53 PM 84.9 °F 51.1 °F 31% 30.06 in 10.0 mi NE 10.4 mph 20.7 mph N/A   Scattered Clouds
1:53 PM 87.1 °F 46.9 °F 25% 30.04 in 10.0 mi North 12.7 mph - N/A   Scattered Clouds
2:53 PM 88.0 °F 46.9 °F 24% 30.02 in 10.0 mi North 15.0 mph 23.0 mph N/A   Scattered Clouds
3:53 PM 87.1 °F 45.0 °F 23% 30.01 in 10.0 mi NNE 9.2 mph - N/A   Scattered Clouds
4:53 PM 88.0 °F 45.0 °F 22% 30.00 in 10.0 mi NNW 10.4 mph 20.7 mph N/A   Scattered Clouds
5:53 PM 86.0 °F 46.0 °F 25% 29.98 in 10.0 mi NNE 6.9 mph - N/A   Scattered Clouds
6:53 PM 86.0 °F 46.9 °F 26% 29.99 in 10.0 mi North 9.2 mph - N/A   Partly Cloudy
7:53 PM 84.0 °F 48.0 °F 28% 29.99 in 10.0 mi NE 10.4 mph - N/A   Partly Cloudy
8:53 PM 80.1 °F 48.0 °F 32% 29.99 in 10.0 mi NE 6.9 mph - N/A   Partly Cloudy
9:53 PM 77.0 °F 50.0 °F 39% 30.01 in 10.0 mi NE 5.8 mph - N/A   Partly Cloudy
10:53 PM 77.0 °F 50.0 °F 39% 30.02 in 10.0 mi NE 4.6 mph - N/A   Clear
11:53 PM 75.9 °F 48.9 °F 38% 30.02 in 10.0 mi Calm Calm - N/A   Clear